Погода в Погодаеве

Россия / Красноярский край     58°41′53″N   92°03′12″E
темп.,
°C
ветер,
м/с
пор.,
м/с
влажн.,
%
обл.,
%
осадки,
мм/ч
давл.,
гПа
погр.,
м
8 мая, сб
сб801:00+4з22955 0.6 100738
04:00+3з239680 0.2 100887
07:00+5з388898 0.3 1010749
10:00+7з5670100 0.3 10101307
13:00+8з3563100 0.7 10101303
16:00+6з3484100 1.0 1010714
19:00+7зсз257299 1.4 1011884
22:00+4ссз228889 0.1 101257
9 мая, вс
вс901:00+2сз2497100 0.1 101297
04:00+3ссз3696100 0.8 1012557
07:00+4сз3588100 1.1 1013345
10:00+5с3592100 0.1 1015586
13:00+8ссз3669100 0.6 10161240
16:00+9с366595 0.4 10171165
19:00+7с368495 0.7 1019767
22:00+5с268815 0.1 1021219
10 мая, пн
пн1001:00+4с239110 0.1 102258
04:00+4с1188100 0.0 102212
07:00+6ссв11805 0.0 1024131
10:00+11св34485 0.0 10241496
13:00+14всв23355 0.0 10232022
16:00+16ссв12327 0.0 10222257
19:00+15ссз113990 0.0 102260
22:00+8всв27655 0.0 1023163
11 мая, вт
вт1101:00+6св22715 0.0 102220
04:00+5ссв227464 0.0 102115
07:00+8св126687 0.0 1021136
10:00+10всв2358100 0.0 1021480
13:00+14с143588 0.0 10192157
16:00+14св554791 0.1 10191821
19:00+11всв45525 0.1 10201392
22:00+6св27722 0.0 1022157
12 мая, ср
ср1201:00+4св27835 0.0 1022194
04:00+3св29840 0.0 1022208
07:00+6всв39590 0.0 1022417
10:00+10всв45365 0.0 10221907
13:00+13всв352899 0.0 10212595
16:00+14св352692 0.0 10202745
19:00+12всв353477 0.0 10201079
22:00+6всв22575 0.0 102239